TOM8324 LGKR-LGKO

Flight info

Callsign TOM8324
Flight time 1h 0m
Altitude 31000
Route MALED UA14 ARA UL612 TRL UM601 GILOS
Aircraft B738/M-SDFGHIJ1RWXYZ/LB1

Departure

Time 2026-05-05 17:03
Airport Corfu Ioannis Kapodistrias International Airport (LGKR)

Arrival

Time 2026-05-05 18:04
Airport Kos International Airport "Ippokratis" (LGKO)
Time Latitude Longitude Altitude Speed Heading
2026-05-05 16:26 39.60878 19.91299 17 ft 0 kts 80°
2026-05-05 16:53 39.60877 19.91289 17 ft 3 kts 74°
2026-05-05 16:53 39.60869 19.91267 20 ft 3 kts 41°
2026-05-05 16:54 39.60854 19.91256 18 ft 3 kts
2026-05-05 16:54 39.60836 19.91259 17 ft 3 kts 348°
2026-05-05 16:54 39.60816 19.91264 18 ft 3 kts 348°
2026-05-05 16:54 39.60808 19.91266 19 ft 0 kts 348°
2026-05-05 16:58 39.60819 19.91263 18 ft 3 kts 348°
2026-05-05 16:59 39.60838 19.91258 17 ft 3 kts 348°
2026-05-05 16:59 39.60857 19.91253 18 ft 3 kts 348°
2026-05-05 16:59 39.60875 19.91247 26 ft 3 kts 341°
2026-05-05 16:59 39.60890 19.91235 13 ft 3 kts 320°
2026-05-05 17:00 39.60903 19.91216 17 ft 4 kts 309°
2026-05-05 17:00 39.60927 19.91173 18 ft 8 kts 310°
2026-05-05 17:00 39.60976 19.91143 18 ft 8 kts 350°
2026-05-05 17:00 39.61028 19.91130 18 ft 8 kts 348°
2026-05-05 17:01 39.61080 19.91116 18 ft 7 kts 348°
2026-05-05 17:01 39.61129 19.91103 18 ft 7 kts 348°
2026-05-05 17:01 39.61158 19.91096 20 ft 3 kts 348°
2026-05-05 17:01 39.61163 19.91095 20 ft 0 kts 349°
2026-05-05 17:02 39.61180 19.91090 18 ft 7 kts 345°
2026-05-05 17:02 39.61222 19.91037 19 ft 10 kts 298°
2026-05-05 17:02 39.61244 19.90958 20 ft 8 kts 255°
2026-05-05 17:03 39.61155 19.90964 20 ft 36 kts 168°
2026-05-05 17:03 39.60635 19.91099 17 ft 114 kts 169°
2026-05-05 17:03 39.59633 19.91359 85 ft 172 kts 169°
2026-05-05 17:03 39.58436 19.91674 870 ft 178 kts 167°
2026-05-05 17:04 39.57344 19.92543 1483 ft 206 kts 130°
2026-05-05 17:04 39.56675 19.94262 2124 ft 218 kts 109°
2026-05-05 17:04 39.55909 19.95976 2811 ft 225 kts 141°
2026-05-05 17:04 39.54643 19.97187 3634 ft 227 kts 146°
2026-05-05 17:05 39.53367 19.98354 4579 ft 225 kts 146°
2026-05-05 17:05 39.52091 19.99555 5395 ft 228 kts 144°
2026-05-05 17:05 39.50814 20.00792 6222 ft 230 kts 143°
2026-05-05 17:05 39.49541 20.02055 7028 ft 232 kts 142°
2026-05-05 17:06 39.48273 20.03332 7747 ft 236 kts 142°
2026-05-05 17:06 39.46963 20.04658 8481 ft 241 kts 142°
2026-05-05 17:06 39.45625 20.06015 9213 ft 246 kts 142°
2026-05-05 17:06 39.44262 20.07402 9939 ft 252 kts 142°
2026-05-05 17:07 39.42831 20.08878 10275 ft 276 kts 141°
2026-05-05 17:07 39.41269 20.10520 10479 ft 303 kts 137°
2026-05-05 17:07 39.39810 20.12633 10681 ft 328 kts 127°
2026-05-05 17:07 39.38414 20.15102 10887 ft 351 kts 124°
2026-05-05 17:08 39.36994 20.17741 11398 ft 362 kts 124°
2026-05-05 17:08 39.35547 20.20438 12097 ft 367 kts 124°
2026-05-05 17:08 39.34072 20.23156 12838 ft 371 kts 124°
2026-05-05 17:08 39.32566 20.25893 13551 ft 376 kts 124°
2026-05-05 17:09 39.31028 20.28656 14196 ft 382 kts 125°
2026-05-05 17:09 39.29478 20.31420 14813 ft 387 kts 125°
2026-05-05 17:09 39.27887 20.34238 15433 ft 392 kts 125°
2026-05-05 17:09 39.26265 20.37100 16042 ft 397 kts 126°
2026-05-05 17:10 39.24625 20.39988 16636 ft 402 kts 126°
2026-05-05 17:10 39.22960 20.42913 17227 ft 407 kts 126°
2026-05-05 17:10 39.21270 20.45879 17818 ft 412 kts 126°
2026-05-05 17:10 39.19559 20.48879 18403 ft 417 kts 126°
2026-05-05 17:11 39.17829 20.51910 18893 ft 422 kts 126°
2026-05-05 17:11 39.16081 20.54970 19398 ft 427 kts 126°
2026-05-05 17:11 39.14314 20.58058 19915 ft 431 kts 126°
2026-05-05 17:11 39.12546 20.61147 20415 ft 435 kts 126°
2026-05-05 17:12 39.10718 20.64338 20914 ft 439 kts 126°
2026-05-05 17:12 39.08918 20.67476 21343 ft 445 kts 126°
2026-05-05 17:12 39.07049 20.70733 21423 ft 459 kts 126°
2026-05-05 17:12 39.05124 20.74083 21519 ft 472 kts 126°
2026-05-05 17:13 39.03148 20.77517 21684 ft 481 kts 126°
2026-05-05 17:13 39.01148 20.80990 22043 ft 485 kts 126°
2026-05-05 17:13 38.99133 20.84485 22458 ft 486 kts 127°
2026-05-05 17:13 38.97115 20.87981 22831 ft 490 kts 127°
2026-05-05 17:14 38.95077 20.91507 23176 ft 493 kts 127°
2026-05-05 17:14 38.93020 20.95064 23524 ft 496 kts 127°
2026-05-05 17:14 38.90953 20.98633 23846 ft 499 kts 127°
2026-05-05 17:14 38.88869 21.02227 24147 ft 502 kts 127°
2026-05-05 17:15 38.86779 21.05829 24439 ft 504 kts 127°
2026-05-05 17:15 38.84676 21.09449 24721 ft 507 kts 127°
2026-05-05 17:15 38.82588 21.13038 24994 ft 510 kts 127°
2026-05-05 17:15 38.80460 21.16693 25281 ft 513 kts 126°
2026-05-05 17:16 38.78319 21.20366 25520 ft 516 kts 126°
2026-05-05 17:16 38.76166 21.24056 25804 ft 518 kts 126°
2026-05-05 17:16 38.73996 21.27769 26052 ft 521 kts 126°
2026-05-05 17:16 38.71820 21.31490 26303 ft 523 kts 126°
2026-05-05 17:17 38.69636 21.35220 26618 ft 524 kts 126°
2026-05-05 17:17 38.67449 21.38949 26980 ft 524 kts 126°
2026-05-05 17:17 38.65263 21.42672 27373 ft 523 kts 126°
2026-05-05 17:17 38.63081 21.46385 27755 ft 522 kts 126°
2026-05-05 17:18 38.60896 21.50098 28098 ft 523 kts 126°
2026-05-05 17:18 38.58708 21.53814 28416 ft 523 kts 126°
2026-05-05 17:18 38.56509 21.57542 28782 ft 524 kts 126°
2026-05-05 17:18 38.54316 21.61257 29160 ft 524 kts 126°
2026-05-05 17:19 38.52117 21.64978 29536 ft 524 kts 126°
2026-05-05 17:19 38.49949 21.68641 29889 ft 524 kts 126°
2026-05-05 17:19 38.47748 21.72356 30265 ft 524 kts 126°
2026-05-05 17:19 38.45543 21.76074 30649 ft 524 kts 126°
2026-05-05 17:20 38.43349 21.79770 31045 ft 522 kts 126°
2026-05-05 17:20 38.41148 21.83472 31093 ft 526 kts 126°
2026-05-05 17:20 38.36714 21.90920 31086 ft 526 kts 126°
2026-05-05 17:21 38.32303 21.98310 31097 ft 522 kts 126°
2026-05-05 17:22 38.25730 22.09291 31091 ft 522 kts 126°
2026-05-05 17:22 38.21321 22.16637 31101 ft 522 kts 126°
2026-05-05 17:23 38.16898 22.23991 31091 ft 523 kts 126°
2026-05-05 17:23 38.12473 22.31330 31092 ft 523 kts 125°
2026-05-05 17:24 38.08066 22.38626 31090 ft 524 kts 126°
2026-05-05 17:24 38.03619 22.45967 31068 ft 524 kts 126°
2026-05-05 17:25 37.99167 22.53302 31072 ft 524 kts 126°
2026-05-05 17:25 37.94717 22.60619 31067 ft 525 kts 126°
2026-05-05 17:26 37.90277 22.67900 31075 ft 524 kts 126°
2026-05-05 17:26 37.85820 22.75196 31064 ft 524 kts 126°
2026-05-05 17:27 37.81363 22.82473 31075 ft 523 kts 126°
2026-05-05 17:27 37.76902 22.89742 31062 ft 523 kts 126°
2026-05-05 17:28 37.72469 22.96949 31053 ft 522 kts 126°
2026-05-05 17:28 37.68006 23.04188 31054 ft 521 kts 126°
2026-05-05 17:29 37.63768 23.11581 31066 ft 518 kts 115°
2026-05-05 17:29 37.61212 23.19964 31066 ft 510 kts 101°
2026-05-05 17:30 37.59246 23.28554 31046 ft 510 kts 101°
2026-05-05 17:30 37.57232 23.37139 31050 ft 511 kts 102°
2026-05-05 17:31 37.55178 23.45669 31062 ft 512 kts 102°
2026-05-05 17:31 37.53089 23.54250 31050 ft 512 kts 102°
2026-05-05 17:32 37.50992 23.62829 31046 ft 512 kts 102°
2026-05-05 17:32 37.48892 23.71407 31049 ft 513 kts 102°
2026-05-05 17:33 37.46786 23.79983 31067 ft 513 kts 102°
2026-05-05 17:33 37.45028 23.87124 31052 ft 513 kts 102°
2026-05-05 17:34 37.42560 23.97107 31055 ft 513 kts 102°
2026-05-05 17:34 37.40434 24.05677 31057 ft 513 kts 102°
2026-05-05 17:35 37.38665 24.12785 31059 ft 514 kts 102°
2026-05-05 17:35 37.36529 24.21339 31057 ft 514 kts 102°
2026-05-05 17:36 37.34382 24.29907 31060 ft 514 kts 102°
2026-05-05 17:36 37.32238 24.38432 31058 ft 514 kts 102°
2026-05-05 17:37 37.30075 24.47005 31066 ft 514 kts 102°
2026-05-05 17:37 37.27907 24.55570 31061 ft 515 kts 102°
2026-05-05 17:38 37.25732 24.64135 31058 ft 515 kts 102°
2026-05-05 17:38 37.23547 24.72706 31061 ft 515 kts 102°
2026-05-05 17:39 37.21353 24.81285 31060 ft 515 kts 103°
2026-05-05 17:39 37.19171 24.89786 31055 ft 515 kts 103°
2026-05-05 17:40 37.16966 24.98351 31006 ft 516 kts 103°
2026-05-05 17:40 37.15856 25.02655 30768 ft 518 kts 103°
2026-05-05 17:40 37.14750 25.06931 30535 ft 517 kts 102°
2026-05-05 17:40 37.13637 25.11227 30291 ft 517 kts 102°
2026-05-05 17:41 37.12522 25.15520 30035 ft 516 kts 102°
2026-05-05 17:41 37.11412 25.19792 29762 ft 515 kts 102°
2026-05-05 17:41 37.10314 25.24007 29491 ft 514 kts 102°
2026-05-05 17:41 37.09211 25.28233 28924 ft 507 kts 103°
2026-05-05 17:42 37.08120 25.32401 28389 ft 500 kts 103°
2026-05-05 17:42 37.07040 25.36515 27835 ft 495 kts 103°
2026-05-05 17:42 37.05970 25.40584 27273 ft 490 kts 103°
2026-05-05 17:42 37.04911 25.44612 26714 ft 485 kts 103°
2026-05-05 17:43 37.03861 25.48600 26169 ft 480 kts 103°
2026-05-05 17:43 37.02821 25.52552 25626 ft 476 kts 104°
2026-05-05 17:43 37.01790 25.56465 25089 ft 471 kts 103°
2026-05-05 17:43 37.00768 25.60338 24559 ft 467 kts 104°
2026-05-05 17:44 36.99752 25.64183 24017 ft 464 kts 104°
2026-05-05 17:44 36.98740 25.68012 23432 ft 461 kts 104°
2026-05-05 17:44 36.97735 25.71806 22814 ft 457 kts 104°
2026-05-05 17:44 36.96735 25.75568 22255 ft 452 kts 104°
2026-05-05 17:45 36.95761 25.79230 21717 ft 447 kts 104°
2026-05-05 17:45 36.94784 25.82898 21191 ft 442 kts 105°
2026-05-05 17:45 36.93814 25.86531 20670 ft 437 kts 105°
2026-05-05 17:45 36.92857 25.90114 20153 ft 432 kts 105°
2026-05-05 17:46 36.91910 25.93658 19648 ft 428 kts 105°
2026-05-05 17:46 36.90971 25.97164 19139 ft 423 kts 105°
2026-05-05 17:46 36.90042 26.00633 18641 ft 419 kts 105°
2026-05-05 17:46 36.89115 26.04085 18075 ft 418 kts 105°
2026-05-05 17:47 36.88194 26.07515 17500 ft 414 kts 105°
2026-05-05 17:47 36.87277 26.10922 16735 ft 413 kts 105°
2026-05-05 17:47 36.86370 26.14290 16024 ft 413 kts 105°
2026-05-05 17:47 36.85464 26.17644 15787 ft 400 kts 105°
2026-05-05 17:48 36.84587 26.20880 15492 ft 390 kts 105°
2026-05-05 17:48 36.83723 26.24074 14883 ft 389 kts 105°
2026-05-05 17:48 36.82855 26.27280 14311 ft 388 kts 105°
2026-05-05 17:48 36.81992 26.30469 13756 ft 387 kts 105°
2026-05-05 17:49 36.81137 26.33618 13315 ft 381 kts 105°
2026-05-05 17:49 36.80289 26.36733 12812 ft 376 kts 105°
2026-05-05 17:49 36.79451 26.39811 12282 ft 373 kts 105°
2026-05-05 17:49 36.78619 26.42866 11757 ft 371 kts 105°
2026-05-05 17:50 36.77792 26.45897 11272 ft 367 kts 105°
2026-05-05 17:50 36.76972 26.48901 10811 ft 364 kts 105°
2026-05-05 17:50 36.76169 26.51831 10721 ft 349 kts 105°
2026-05-05 17:50 36.75396 26.54643 10640 ft 335 kts 105°
2026-05-05 17:51 36.74664 26.57308 10563 ft 323 kts 105°
2026-05-05 17:51 36.73949 26.59914 10475 ft 312 kts 104°
2026-05-05 17:51 36.73255 26.62438 10350 ft 303 kts 104°
2026-05-05 17:51 36.72578 26.64907 10049 ft 298 kts 104°
2026-05-05 17:52 36.71910 26.67344 9489 ft 297 kts 104°
2026-05-05 17:52 36.71241 26.69785 8923 ft 298 kts 104°
2026-05-05 17:52 36.70569 26.72232 8542 ft 299 kts 104°
2026-05-05 17:52 36.69903 26.74646 8288 ft 295 kts 104°
2026-05-05 17:53 36.69236 26.77064 7966 ft 294 kts 104°
2026-05-05 17:53 36.68581 26.79436 7643 ft 293 kts 104°
2026-05-05 17:53 36.67920 26.81827 7335 ft 292 kts 104°
2026-05-05 17:53 36.67261 26.84211 7037 ft 291 kts 104°
2026-05-05 17:54 36.66601 26.86591 6727 ft 290 kts 104°
2026-05-05 17:54 36.65945 26.88958 6448 ft 288 kts 104°
2026-05-05 17:54 36.65292 26.91311 6126 ft 287 kts 104°
2026-05-05 17:54 36.64640 26.93660 5845 ft 285 kts 104°
2026-05-05 17:55 36.63997 26.95971 5682 ft 278 kts 104°
2026-05-05 17:55 36.63381 26.98179 5610 ft 268 kts 104°
2026-05-05 17:55 36.62779 27.00337 5537 ft 258 kts 104°
2026-05-05 17:55 36.62201 27.02414 5460 ft 249 kts 104°
2026-05-05 17:56 36.61642 27.04420 5388 ft 240 kts 104°
2026-05-05 17:56 36.61108 27.06332 5351 ft 226 kts 104°
2026-05-05 17:56 36.60606 27.08120 5277 ft 212 kts 103°
2026-05-05 17:56 36.60138 27.09788 5216 ft 197 kts 103°
2026-05-05 17:57 36.59691 27.11388 5178 ft 196 kts 103°
2026-05-05 17:57 36.59375 27.13007 5037 ft 188 kts 79°
2026-05-05 17:57 36.59689 27.14503 4924 ft 177 kts 63°
2026-05-05 17:57 36.60130 27.15933 4711 ft 176 kts 62°
2026-05-05 17:58 36.60572 27.17337 4525 ft 173 kts 62°
2026-05-05 17:58 36.61003 27.18718 4340 ft 171 kts 62°
2026-05-05 17:58 36.61427 27.20074 4162 ft 169 kts 62°
2026-05-05 17:58 36.62090 27.21221 3965 ft 162 kts 27°
2026-05-05 17:59 36.63149 27.21535 3816 ft 155 kts 353°
2026-05-05 17:59 36.64087 27.20999 3657 ft 145 kts 331°
2026-05-05 17:59 36.64943 27.20351 3491 ft 140 kts 332°
2026-05-05 17:59 36.65755 27.19735 3312 ft 131 kts 332°
2026-05-05 18:00 36.66539 27.19133 3149 ft 133 kts 332°
2026-05-05 18:00 36.67309 27.18538 2942 ft 130 kts 331°
2026-05-05 18:00 36.68067 27.17949 2772 ft 127 kts 332°
2026-05-05 18:00 36.68794 27.17384 2625 ft 129 kts 331°
2026-05-05 18:01 36.69555 27.16795 2445 ft 129 kts 330°
2026-05-05 18:01 36.70291 27.16228 2287 ft 129 kts 330°
2026-05-05 18:01 36.71052 27.15640 2116 ft 128 kts 329°
2026-05-05 18:01 36.71806 27.15059 1971 ft 127 kts 329°
2026-05-05 18:02 36.72554 27.14486 1812 ft 126 kts 329°
2026-05-05 18:02 36.73299 27.13914 1639 ft 127 kts 328°
2026-05-05 18:02 36.74066 27.13326 1462 ft 131 kts 328°
2026-05-05 18:02 36.74840 27.12722 1287 ft 131 kts 327°
2026-05-05 18:03 36.75620 27.12113 1113 ft 134 kts 327°
2026-05-05 18:03 36.76418 27.11495 926 ft 136 kts 327°
2026-05-05 18:03 36.77210 27.10870 745 ft 138 kts 326°
2026-05-05 18:03 36.78027 27.10232 558 ft 138 kts 326°
2026-05-05 18:04 36.78834 27.09597 393 ft 134 kts 329°
2026-05-05 18:04 36.79483 27.09093 411 ft 82 kts 328°
2026-05-05 18:04 36.79853 27.08806 415 ft 45 kts 328°
2026-05-05 18:04 36.80071 27.08635 411 ft 34 kts 327°
2026-05-05 18:05 36.80238 27.08506 413 ft 22 kts 328°
2026-05-05 18:05 36.80330 27.08447 415 ft 9 kts
2026-05-05 18:05 36.80355 27.08505 420 ft 9 kts 97°
2026-05-05 18:05 36.80344 27.08578 416 ft 8 kts 101°
2026-05-05 18:06 36.80330 27.08648 416 ft 8 kts 111°
2026-05-05 18:06 36.80312 27.08688 411 ft 8 kts 130°
2026-05-05 18:06 36.80245 27.08739 412 ft 10 kts 148°
2026-05-05 18:06 36.80181 27.08790 418 ft 12 kts 147°
2026-05-05 18:07 36.80098 27.08855 418 ft 15 kts 148°
2026-05-05 18:07 36.80005 27.08928 414 ft 16 kts 148°
2026-05-05 18:07 36.79957 27.08965 413 ft 3 kts 148°
2026-05-05 18:07 36.79942 27.08982 418 ft 3 kts 120°
2026-05-05 18:08 36.79947 27.09006 409 ft 3 kts 62°
2026-05-05 18:08 36.79957 27.09028 418 ft 3 kts 58°
2026-05-05 18:08 36.79963 27.09041 412 ft 1 kts 58°
2026-05-05 18:08 36.79968 27.09049 418 ft 1 kts 58°
2026-05-05 18:09 36.79974 27.09061 408 ft 2 kts 58°
2026-05-05 18:09 36.79976 27.09066 410 ft 0 kts 58°